[Date Prev][Date Next][Thread Prev][Thread Next] - [Date Index][Thread Index][Author Index]

2 Line ISS Keps 1-28



ISS
1 25544U 98067A   05028.01241508  .00018280  00000-0  15062-3 0  6843
2 25544  51.6463 257.6453 0009403  38.8076 106.7690 15.70390359353649
----
Via the sarex mailing list at AMSAT.ORG courtesy of AMSAT-NA.
To unsubscribe, send "unsubscribe sarex" to Majordomo@amsat.org



AMSAT Top AMSAT Home